CZ-4C DEB, 44618

Orbit data source: Space-Track

CZ-4C DEB, 44618 is space debris in LEO originally from a launch on Tue, 10 Apr 2018 UTC launched from the Taiyaun Space Center, China (TSC). Debris objects in space refer to the collection of defunct objects orbiting the Earth. Examples of debris include non-operational satellites, rocket bodies, and fragments generated from explosions, collisions, or faulty payload assembly.

Loading next visibility...
Identifier
44618, 2018-034K
Orbit
LEO
Country
Flag of CNCN / PRC
Related business
Manufacturer
Unknown
Mission
Spacecraft
Bus & Motor
Unknown
Mass
Unknown
Launch date (UTC)
2018-04-10 (8 years ago)
Launch vehicle
Unknown
Launch site
Taiyaun Space Center, China (TSC)
Object type
Payload
Rocket body
Debris
Shape & HBR
Unknown shape, 0.1 m
Radar Cross Section
Small (<0.1 m²)

Expand to show TLE details & history
Last TLE update: 1 day ago

TLE from 1 day ago
0 CZ-4C DEB
1 44618U 18034K   26122.69258014 -.00000086  00000-0  53181-5 0  9995
2 44618  63.4640 270.2406 0253360 346.2135  13.2057 13.42047548370749
Epoch: 2026-05-02T16:37Z
TLE epoch observation values (Epoch: 2026-05-02T16:37:18.924Z)
Latitude
0.00005°
Longitude
160.30495°
Altitude
919.178 km
Speed
7.483 km/s
True Right ascension
18h 00m 57s
True Declination
0° 00' 00"
Sunlit
Object was in full shadow at epoch
Visualization orbit readout
Latitude
Unknown
Longitude
Unknown
Altitude
Unknown
Speed
Unknown
Apparent Right ascension
Unknown
Apparent Declination
Unknown
Sunlit
N/A
Visualization observer readout
Local Sidereal Time
03:48:05
Azimuth
Unknown
Elevation
Unknown
Doppler factor
Unknown
Orbital elements
Apogee altitude
1,289.962 km
Perigee altitude
911.006 km
Semi-major axis
7,478.621 km
Eccentricity
0.02534
Inclination
63.464°
RAAN
270.2406°
Arg. of periapsis
346.2135°
True anomaly
13.89001°
Mean anomaly
13.2057°
Eccentric anomaly
13.54571°
Mean motion
3.35591 °/min
Orbital period
107.27 mins
BSTAR
0.0000053181
Loading maneuver chart data...
Computing Atmospheric mass density...
Loading historical data...
Loading historical data...
Loading historical data...
Loading historical data...
Loading historical data...
Loading historical data...
Loading historical data...

Documentation

Showing up to 5 results
|